loading
|

SCOUT B DEB, 2800

Orbit data source: Space-Track

SCOUT B DEB, 2800 is space debris in LEO originally from a launch on Thu, 04 Aug 1966 UTC launched from the Air Force Western Test Range (AFWTR). Debris objects in space refer to the collection of defunct objects orbiting the Earth. Examples of debris include non-operational satellites, rocket bodies, and fragments generated from explosions, collisions, or faulty payload assembly.

Loading next visibility...
Next conjunction unknown
Loading greatness...
SCOUT B DEB details
Identifier
2800, 1966-070D
Orbit
LEO
Last TLE update3 days ago
Origin
Flag of USUSAF SSD (US)
ManufacturerUnknown
MissionSpacecraft
Bus & MotorUnknown bus, Unknown motor
MassUnknown
Launch date (UTC)
1966-08-04 (58 years ago)
Launch vehicleUnknown
Launch site
Air Force Western Test Range (AFWTR)
Object type
Payload
Rocket body
Debris
Shape & HBRUnknown
Radar Cross SectionSmall (<0.1 m²)

Expand to show TLE details & history

TLE from 3 days ago
0 SCOUT B DEB
1  2800U 66070D   24283.16552755  .00016904  00000-0  22702-2 0  9999
2  2800  81.4139 337.3590 1435251 315.9989  33.5136 12.32142092508542
Epoch: 2024-10-09T03:58Z
Definitive object data (Epoch: 2024-10-09T03:58:21.58Z)
Latitude0.00006°
Longitude-100.49925°
Altitude655.194 km
Speed7.941 km/s
True Right ascension22h 29m 26s
True Declination0° 00' 00"
Sunlit
Object was in full shadow at TLE epoch
Predictive object data (real-time)
Latitude-77.19834°
Longitude118.81448°
Altitude743.722 km
Speed7.864 km/s
Apparent Right ascension07h 24m 21s
Apparent Declination-66° 35' 27"
Sunlit
Object is in daylight
Predictive observer data (real-time)
Local Sidereal Time18:09:12
Azimuth195.466° SSW
Elevation-61.322°
Doppler factor1
Orbital elements
Apogee2,673.5 km
Perigee401.338 km
Semi-major axis7,915.556 km
Eccentricity0.1435251
Inclination81.4139°
RAAN337.359°
Arg. of periapsis315.9989°
True anomaly44.1163°
Mean anomaly33.5136°
Eccentric anomaly38.64956°
Mean motion3.08192 °/min
BSTAR0.0022702
Period116.81 mins
No data available
No data available
Other satellites on launch #70 in the year 1966 (1966-08-04 UTC)

SCOUT B DEB Visibility forecast

Observer location: 39.9160978°, -105.1181434

Span
Click to sort rows by Start time (UTC) header in descending order
Start Az.
Max El. time (UTC)
Max El. Az.
Max El.
End time (UTC)
End Az.
7 mins2024-10-12 02:17:27.873Z89.565° E2024-10-12 02:20:27.873Z66.972° ENE13.16°2024-10-12 02:24:27.873Z42.31° NE
16 mins2024-10-12 04:10:27.873Z179.697° S2024-10-12 04:15:27.873Z110.852° ESE44.527°2024-10-12 04:26:27.873Z11.017° NNE
12 mins2024-10-12 06:11:27.873Z269.497° W2024-10-12 06:15:27.873Z304.145° NW20.711°2024-10-12 06:23:27.873Z352.047° N
17 mins2024-10-12 12:28:27.873Z15.983° NNE2024-10-12 12:36:27.873Z51.322° ENE18.655°2024-10-12 12:45:27.873Z90.248° ESE
27 mins2024-10-12 14:24:27.873Z356.69° N2024-10-12 14:38:27.873Z79.553° E41.495°2024-10-12 14:51:27.873Z153.753° SSE
25 mins2024-10-12 16:23:27.873Z339.607° N2024-10-12 16:35:27.873Z279.465° WNW36.559°2024-10-12 16:48:27.873Z208.709° SW